Regional Weather Roundup
Issued by NWS

Home | Current Version | Previous Version | Text Only | Print | Product List | Glossary Off
Versions: 1 2 3 4 5 6 7 8 9 10 11 12 13 14 15 16 17 18 19 20 21 22 23 24 25 26 27 28 29 30 31 32 33 34 35 36 37 38 39 40 41 42 43 44 45 46 47 48 49 50

000
ASUS43 KMPX 262010
RWRMN
WEATHER ROUNDUP FOR MINNESOTA
NATIONAL WEATHER SERVICE TWIN CITIES/CHANHASSEN MN
300 PM CDT MON SEP 26 2016


NOTE: "FAIR" INDICATES FEW OR NO CLOUDS BELOW 12,000 FEET WITH NO
SIGNIFICANT WEATHER AND/OR OBSTRUCTIONS TO VISIBILITY. N/A MEANS
CURRENT SKY AND/OR WEATHER CONDITIONS ARE NOT AVAILABLE.

MNZ060>063-068>070-262100-
   Twin Cities Metro

CITY           SKY/WX    TMP DP  RH WIND       PRES   REMARKS
TWIN CITIES    MOSUNNY   64  37  36 NW21G32   29.89F
ST PAUL        MOSUNNY   63  38  39 NW22G33   29.89F
CRYSTAL        MOSUNNY   65  34  31 W24G31    29.88F
BLAINE         MOSUNNY   63  37  39 W24G35    29.88F
LAKEVILLE      SUNNY     64  36  34 W22G31    29.90F
EDEN PRAIRIE   SUNNY     67  33  28 NW21G30   29.89F
LAKEVILLE      SUNNY     64  36  34 W22G31    29.90F
SOUTH ST PAUL  MOSUNNY   64  36  35 W17G24    29.89F
LAKE ELMO      PTSUNNY   61  41  48 W22G30    29.90S
$$
MNZ001>005-007-008-013>017-022>024-027-028-262100-
   Northwest Minnesota

CITY           SKY/WX    TMP DP  RH WIND       PRES   REMARKS
BEMIDJI        CLOUDY    56  40  56 W28G39    29.84S
HALLOCK        PTSUNNY   59  45  58 NW22G32   29.89F
ROSEAU         PTSUNNY   57  48  72 W18G26    29.81S
THIEF RVR FALL CLOUDY    57  42  57 NW22G30   29.90S
CROOKSTON      MOSUNNY   61  43  51 NW28G37   29.91F
FOSSTON        PTSUNNY   55  39  54 NW22G29   29.90S
DETROIT LAKES  SUNNY     61  36  39 NW25G35   29.93S
MOORHEAD       SUNNY     66  30  26 NW29G35   29.93F
PARK RAPIDS    PTSUNNY   60  37  42 NW25G36   29.87S
MAHNOMEN       FAIR      59  41  51 NW28G33   29.90S
$$
MNZ006-009>011-018-025>026-262100-
   North Central Minnesota

CITY           SKY/WX    TMP DP  RH WIND       PRES   REMARKS
BAUDETTE       CLOUDY    53  44  71 W24G37    29.74S
FLAG ISLAND    LGT RAIN  52  48  87 NW24G33   29.73R
INTL FALLS     LGT RAIN  50  48  93 W14G23    29.67R
WASKISH        CLOUDY    54  46  76 W23G37    29.78S
BIG FORK       CLOUDY    52  45  76 W9        29.74S
GRAND RAPIDS   CLOUDY    54  41  61 NW23G33   29.79S
ORR            DRIZZLE   48  45  87 W13G25    29.66S
COOK           LGT RAIN  48  46  93 W15G23    29.70R
WALKER         CLOUDY    57  40  52 W21G30    29.83S
$$
MNZ012-019>021-037-262100-
   Northeast Minnesota

CITY           SKY/WX    TMP DP  RH WIND       PRES   REMARKS
DULUTH         CLOUDY    53  43  68 W21G30    29.73R
ELY            LGT RAIN  48  46  93 W18G28    29.63R
HIBBING        LGT RAIN  49  44  83 W13G24    29.73R
EVELETH        DRIZZLE   53  47  83 W20G29    29.72R
DULUTH HARBOR  CLOUDY    57  45  62 W21G29    29.74S
TWO HARBORS    DRIZZLE   54  48  82 W16G24    29.68S
SILVER BAY     DRIZZLE   52  46  82 W9G16     29.64R
GRAND MARAIS     N/A     52  50  93 W7G22     29.54S
G MARAIS ARPRT DRIZZLE   48  43  81 W12G21    29.54R
$$
MNZ029>031-032-039>041-046>048-054>057-064-262100-
   West Central Minnesota

CITY           SKY/WX    TMP DP  RH WIND       PRES   REMARKS
FERGUS FALLS   SUNNY     64  34  32 NW28G38   29.95S
MORRIS         SUNNY     68  32  26 NW30G40   29.94F
ALEXANDRIA     SUNNY     64  29  26 NW29G39   29.93F
ELBOW LAKE     FAIR      64  33  31 NW25G36   29.95S
GLENWOOD       SUNNY     64  32  29 W29G38    29.93F
BENSON         SUNNY     68  27  21 NW24G38   29.95F
MADISON          N/A     70  34  26 W22G31    30.00F
WILLMAR        FAIR      66  36  32 NW20G39   29.96F
$$
MNZ033>034-036-042>043-049>051-058-059-262100-
   Central Minnesota

CITY           SKY/WX    TMP DP  RH WIND       PRES   REMARKS
ST CLOUD       SUNNY     63  36  36 NW22G35   29.89F
SAUK CENTRE    FAIR      63  32  31 NW25G38   29.91S
PAYNESVILLE    SUNNY     65  28  25 W28G40    29.92F
AITKIN         MOSUNNY   61  36  39 W12G24    29.81S
PINE RIVER     MOSUNNY   59  41  51 W17G29    29.87F
BRAINERD       CLOUDY    59  37  44 NW24G31   29.86S
STAPLES        PTSUNNY   57  34  41 W23G33    29.88S
LONG PRAIRIE   FAIR      61  34  36 SW18G32   29.91S
LITTLE FALLS   SUNNY     59  32  36 W22G31    29.89S
LITCHFIELD     SUNNY     66  36  32 W18G29    29.93F
BUFFALO        SUNNY     64  33  32 W17G26    29.91F
MAPLE LAKE     SUNNY     65  37  35 NW18G30   29.91F
HUTCHINSON     SUNNY     67  33  27 W17G37    29.94F
$$
MNZ037-044-045-052-053-262100-
   East Central Minnesota

CITY           SKY/WX    TMP DP  RH WIND       PRES   REMARKS
PRINCETON      PTSUNNY   63  39  42 W21G26    29.88S
MORA           MOSUNNY   59  36  41 NW22G31   29.85F
CAMBRIDGE      PTSUNNY   64  45  48 W22G29    29.85S
MOOSE LAKE     CLOUDY    57  37  47 W16G24    29.77S
HINCKLEY       MOCLDY    61  41  48 W18G35    29.82F
CLOQUET        DRIZZLE   54  39  58 W21G28    29.76R
MCGREGOR       CLOUDY    57  39  51 W21G28    29.80S
$$
MNZ071>073-080-081-089-090-097-098-262100-
   Southwest Minnesota

CITY           SKY/WX    TMP DP  RH WIND       PRES   REMARKS
MONTEVIDEO     SUNNY     68  34  28 N21G32    30.00F
GRANITE FALLS  SUNNY     69  35  28 W21G35    30.01F
CANBY          SUNNY     67  33  27 W26G35    30.03F
MARSHALL       SUNNY     67  34  29 NW29      30.00F
REDWOOD FALLS  SUNNY     68  32  26 NW23G40   29.98F
OLIVIA         SUNNY     68  34  28 W22G39    29.96F
PIPESTONE      SUNNY     66  21  18 W23G30    30.06F
WINDOM         SUNNY     66  30  26 W23G29    30.02F
WORTHINGTON    SUNNY     66  33  29 NW24G35   30.05F
JACKSON        SUNNY     68  27  21 W21G31    30.03F
TRACY          SUNNY     68  34  28 NW22G32   30.03F
$$
MNZ065>067-074>077-082>085-091>093-262100-
   South Central Minnesota

CITY           SKY/WX    TMP DP  RH WIND       PRES   REMARKS
MANKATO        SUNNY     66  33  29 W26G39    29.95
NEW ULM        SUNNY     66  32  28 NW25G36   29.97F
ST JAMES       SUNNY     66  32  28 W28       30.00F
FAIRMONT       SUNNY     67  34  29 W23G30    30.01F
GLENCOE        SUNNY     67  35  30 W25G33    29.92F
FARIBAULT      SUNNY     66  32  28 W26G38    29.93F
OWATONNA       SUNNY     66  28  24 W23G37    29.94F
WASECA         SUNNY     64  32  29 W25G32    29.97F
ALBERT LEA     SUNNY     66  30  26 W17G31    29.97F
$$
MNZ078>079-086>088-094>096-262100-
   Southeast Minnesota

CITY           SKY/WX    TMP DP  RH WIND       PRES   REMARKS
ROCHESTER      SUNNY     66  32  28 W20G38    29.92F
RED WING       MOSUNNY   64  34  32 NW20G29   29.89S
STANTON        SUNNY     66  32  28 W28       29.90F
DODGE CENTER   SUNNY     64  28  25 NW30G39   29.93S
WINONA         MOSUNNY   66  37  34 NW24      29.89S
AUSTIN         SUNNY     66  34  30 W22G36    29.95F
PRESTON        SUNNY     64  32  30 W26G33    29.93F
$$
ABBREVIATIONS USED IN REMARKS
   TC - TEMPERATURES IN CELSIUS
  WCI - WIND CHILL INDEX
   HX - HEAT INDEX
  VSB - VISIBILITY
$$




USA.gov is the U.S. government's official web portal to all federal, state and local government web resources and services.